Montreal Mirabel, Ontario

1:02 PM EDT on April 25, 2017 (GMT -0400)
Montreal International (Mirabel)

Weather History for CYMX - May, 2012

Change the Weather History Date:

Thursday, May 10, 2012

  Actual Average Record
Temperature  
Mean Temperature 50 °F -  
Max Temperature 51 °F 61 °F 82 °F (2007)
Min Temperature 48 °F 41 °F 37 °F (2003)
Degree Days  
Heating Degree Days 16    
Moisture  
Dew Point 45 °F    
Average Humidity 84    
Maximum Humidity 100    
Minimum Humidity 66    
Precipitation  
Precipitation 0.00 in - - ()
Sea Level Pressure  
Sea Level Pressure 29.55 in    
Wind  
Wind Speed 6 mph ()    
Max Wind Speed 14 mph    
Max Gust Speed 24 mph    
Visibility 12.3 miles    
Events Rain    
Averages and records for this station are not official NWS values.
T = Trace of Precipitation, MM = Missing Value Source: Averaged Metar Reports

Daily Weather History Graph

Daily Weather History Graph

Search for Another Location

Airport or City:

Trip Planner

Search our weather history database for the weather conditions in past years. The results will help you decide how hot, cold, wet, or windy it might be!

Date:

Astronomy

May. 10, 2012 Rise Set
Actual Time 5:30 AM EDT 8:15 PM EDT
Civil Twilight 4:56 AM EDT 8:49 PM EDT
Nautical Twilight 4:13 AM EDT 9:32 PM EDT
Astronomical Twilight 3:22 AM EDT 10:23 PM EDT
Moon 12:13 AM EDT (5/10) 9:51 AM EDT (5/10)
Length of Visible Light 15h 53m
Length of Day
14h 44m
Waning Gibbous, 73% of the Moon is Illuminated
May 10
Waning Gibbous
May 12
Last Quarter
May 20
New
May 28
First Quarter
Jun 4
Full

Hourly Weather History & Observations

Time (EDT) Temp. Dew Point Humidity Pressure Visibility Wind Dir Wind Speed Gust Speed Precip Events Conditions
12:00 AM 50.0 °F 48.2 °F 94% 29.56 in 25.0 mi South 3.5 mph - N/A   Overcast
1:00 AM 51.8 °F 48.2 °F 88% 29.57 in 25.0 mi WSW 5.8 mph - N/A   Mostly Cloudy
2:00 AM 50.0 °F 48.2 °F 94% 29.56 in 25.0 mi SW 3.5 mph - N/A   Overcast
2:46 AM 50.0 °F 50.0 °F 100% - 8.0 mi West 4.6 mph - N/A   Overcast
3:00 AM 51.8 °F 50.0 °F 94% 29.55 in 7.0 mi West 6.9 mph - N/A   Overcast
3:41 AM 51.8 °F 50.0 °F 94% - 8.0 mi West 2.3 mph - N/A   Overcast
4:00 AM 50.0 °F 50.0 °F 100% 29.53 in 8.0 mi Calm Calm - N/A   Overcast
5:00 AM 50.0 °F 50.0 °F 100% 29.51 in 10.0 mi WSW 3.5 mph - N/A   Overcast
6:00 AM 50.0 °F 48.2 °F 94% 29.51 in 10.0 mi WSW 4.6 mph - N/A   Overcast
7:00 AM 48.2 °F 46.4 °F 93% 29.52 in 25.0 mi West 5.8 mph - N/A   Overcast
7:44 AM 48.2 °F 44.6 °F 87% - 20.0 mi West 6.9 mph - N/A   Overcast
8:00 AM 48.2 °F 44.6 °F 87% 29.52 in 25.0 mi West 5.8 mph - N/A   Overcast
9:00 AM 48.2 °F 44.6 °F 87% 29.52 in 20.0 mi WSW 8.1 mph - N/A   Overcast
10:00 AM 48.2 °F 44.6 °F 87% 29.51 in 20.0 mi SW 8.1 mph - N/A   Overcast
11:00 AM 50.0 °F 44.6 °F 82% 29.51 in 25.0 mi WSW 10.4 mph - N/A   Overcast
12:00 PM 50.0 °F 44.6 °F 82% 29.51 in 25.0 mi WSW 9.2 mph 19.6 mph N/A   Overcast
1:00 PM 50.0 °F 44.6 °F 82% 29.50 in 25.0 mi SW 11.5 mph 20.7 mph N/A   Overcast
1:25 PM 48.2 °F 46.4 °F 93% - 25.0 mi WSW 11.5 mph 19.6 mph N/A Rain Light Rain Showers
2:00 PM 51.8 °F 44.6 °F 76% 29.50 in 25.0 mi West 4.6 mph - N/A   Overcast
3:00 PM 51.8 °F 42.8 °F 71% 29.51 in 25.0 mi West 5.8 mph - N/A   Overcast
4:00 PM 51.8 °F 42.8 °F 71% 29.52 in 25.0 mi West 6.9 mph - N/A   Overcast
5:00 PM 50.0 °F 42.8 °F 76% 29.54 in 25.0 mi WNW 10.4 mph 18.4 mph N/A   Overcast
6:00 PM 50.0 °F 41.0 °F 71% 29.56 in 25.0 mi WNW 11.5 mph 18.4 mph N/A   Overcast
7:00 PM 50.0 °F 41.0 °F 71% 29.57 in 25.0 mi WNW 8.1 mph - N/A   Overcast
8:00 PM 50.0 °F 41.0 °F 71% 29.60 in 25.0 mi NW 11.5 mph 19.6 mph N/A   Mostly Cloudy
9:00 PM 50.0 °F 41.0 °F 71% 29.62 in 25.0 mi WNW 8.1 mph - N/A   Mostly Cloudy
10:00 PM 48.2 °F 39.2 °F 71% 29.65 in 25.0 mi WNW 8.1 mph - N/A   Mostly Cloudy
11:00 PM 48.2 °F 37.4 °F 66% 29.67 in 25.0 mi NW 13.8 mph 24.2 mph N/A   Mostly Cloudy